Location: Malvern Link
(52.1333°N, 2.3000°W)
Time: 02:53:21
(UTC+00:00)

ISS - Visible Passes

Search period start: 27 January 2022 00:00
Search period end: 06 February 2022 00:00
Orbit: 413 x 422 km, 51.6° (Epoch: 26 January)

Date Brightness Start Highest point End Pass type
(mag) Time Alt. Az. Time Alt. Az. Time Alt. Az.
27 Jan -3.8 18:03:03 10° W 18:06:25 82° S 18:08:30 21° E visible
27 Jan -1.5 19:39:49 10° W 19:41:26 26° W 19:41:26 26° W visible
28 Jan -3.8 18:51:45 10° W 18:55:05 74° S 18:55:22 68° SE visible
29 Jan -3.8 18:03:39 10° W 18:07:00 82° S 18:09:19 19° E visible
29 Jan -1.6 19:40:28 10° W 19:42:15 26° WSW 19:42:15 26° WSW visible
30 Jan -3.2 18:52:19 10° W 18:55:35 51° SSW 18:56:15 42° SSE visible
31 Jan -3.4 18:04:12 10° W 18:07:31 64° SSW 18:10:20 14° ESE visible
31 Jan -1.4 19:41:16 10° W 19:43:16 20° SW 19:43:16 20° SW visible
01 Feb -2.1 18:52:57 10° W 18:55:54 29° SSW 18:57:26 20° SSE visible
02 Feb -2.5 18:04:43 10° W 18:07:53 40° SSW 18:11:02 10° SE visible
02 Feb -0.7 19:43:10 10° WSW 19:43:57 11° SW 19:44:41 10° SSW visible
03 Feb -1.0 18:53:57 10° WSW 18:56:02 16° SW 18:58:07 10° S visible
04 Feb -1.3 18:05:24 10° W 18:08:04 22° SSW 18:10:43 10° SSE visible
